• In Belarus
  • List of Countries
  • For 7 days
  • Water Temperature
  • Satellite Maps
  • Weather Map
  • Weather Widgets
  • user-avatar
    Login

    Hourly Weather Tarija

    Today, 18 January, Thursday

    Time Temperature Precipitation Wind Pressure Humidity
    00:00 +19°C° 0.1 mm 1 mps 597 mmHg 93%
    01:00 +19°C° 0.1 mm 1 mps 597 mmHg 94%
    02:00 +19°C° 0.1 mm 1 mps 597 mmHg 94%
    03:00 +19°C° 0.1 mm 1 mps 597 mmHg 94%
    04:00 +19°C° 0.1 mm 1 mps 597 mmHg 94%
    05:00 +18°C° 0.1 mm 1 mps 597 mmHg 94%
    06:00 +19°C° 0.1 mm 1 mps 597 mmHg 93%
    07:00 +19°C° 0.1 mm 1 mps 598 mmHg 92%
    08:00 +20°C° 0.1 mm 1 mps 598 mmHg 91%
    09:00 +19°C° 0.3 mm 2 mps 599 mmHg 89%
    10:00 +20°C° 0.3 mm 2 mps 599 mmHg 87%
    11:00 +20°C° 0.3 mm 2 mps 599 mmHg 85%
    12:00 +20°C° 0.4 mm 3 mps 599 mmHg 84%
    13:00 +20°C° 0.4 mm 3 mps 598 mmHg 84%
    14:00 +21°C° 0.4 mm 3 mps 598 mmHg 84%
    15:00 +20°C° 0.2 mm 3 mps 598 mmHg 86%
    16:00 +20°C° 0.2 mm 3 mps 597 mmHg 87%
    17:00 +20°C° 0.2 mm 3 mps 597 mmHg 89%
    18:00 +19°C° 0.3 mm 2 mps 597 mmHg 91%
    19:00 +19°C° 0.3 mm 2 mps 597 mmHg 93%
    20:00 +18°C° 0.3 mm 2 mps 598 mmHg 95%
    21:00 +18°C° 0.5 mm 2 mps 598 mmHg 95%
    22:00 +18°C° 0.5 mm 2 mps 599 mmHg 95%
    23:00 +19°C° 0.5 mm 1 mps 599 mmHg 95%

    Tomorrow, 19 January, Friday

    Time Temperature Precipitation Wind Pressure Humidity
    00:00 +18°C° 0.8 mm 1 mps 599 mmHg 95%
    01:00 +18°C° 0.8 mm 1 mps 598 mmHg 95%
    02:00 +18°C° 0.8 mm 1 mps 598 mmHg 96%
    03:00 +18°C° 0.3 mm 1 mps 598 mmHg 96%
    04:00 +18°C° 0.3 mm 1 mps 598 mmHg 95%
    05:00 +18°C° 0.3 mm 1 mps 598 mmHg 95%
    06:00 +18°C° 0.4 mm 1 mps 598 mmHg 95%
    07:00 +18°C° 0.4 mm 1 mps 599 mmHg 94%
    08:00 +18°C° 0.4 mm 1 mps 599 mmHg 94%
    09:00 +19°C° 0.4 mm 1 mps 599 mmHg 92%
    10:00 +19°C° 0.4 mm 1 mps 599 mmHg 90%
    11:00 +20°C° 0.4 mm 1 mps 599 mmHg 88%
    12:00 +20°C° 0.2 mm 2 mps 599 mmHg 81%
    13:00 +21°C° 0.2 mm 2 mps 599 mmHg 75%
    14:00 +24°C° 0.2 mm 3 mps 599 mmHg 68%
    15:00 +22°C° 0.8 mm 3 mps 598 mmHg 73%
    16:00 +21°C° 0.8 mm 3 mps 597 mmHg 78%
    17:00 +21°C° 0.8 mm 3 mps 597 mmHg 83%
    18:00 +20°C° 0.8 mm 2 mps 597 mmHg 87%
    19:00 +19°C° 0.8 mm 2 mps 597 mmHg 91%
    20:00 +18°C° 0.8 mm 2 mps 597 mmHg 94%
    21:00 +19°C° 0.2 mm 1 mps 597 mmHg 94%
    22:00 +18°C° 0.2 mm 1 mps 598 mmHg 94%
    23:00 +18°C° 0.2 mm 1 mps 598 mmHg 95%

    Day after tomorrow, 20 January, Saturday

    Time Temperature Precipitation Wind Pressure Humidity
    00:00 +18°C° 0.1 mm 1 mps 597 mmHg 94%
    01:00 +18°C° 0.1 mm 1 mps 597 mmHg 94%
    02:00 +18°C° 0.1 mm 1 mps 596 mmHg 94%
    03:00 +16°C° 0 mm 1 mps 596 mmHg 94%
    04:00 +16°C° 0 mm 1 mps 596 mmHg 94%
    05:00 +16°C° 0 mm 1 mps 595 mmHg 94%
    06:00 +18°C° 0 mm 1 mps 596 mmHg 91%
    07:00 +19°C° 0 mm 1 mps 597 mmHg 87%
    08:00 +20°C° 0 mm 1 mps 598 mmHg 84%
    09:00 +20°C° 0.2 mm 2 mps 598 mmHg 76%
    10:00 +23°C° 0.2 mm 2 mps 598 mmHg 68%
    11:00 +25°C° 0.2 mm 3 mps 598 mmHg 60%
    12:00 +25°C° 0.8 mm 3 mps 598 mmHg 58%
    13:00 +26°C° 0.8 mm 3 mps 597 mmHg 56%
    14:00 +27°C° 0.8 mm 3 mps 596 mmHg 53%
    15:00 +26°C° 1 mm 3 mps 596 mmHg 56%
    16:00 +26°C° 1 mm 3 mps 595 mmHg 60%
    17:00 +25°C° 1 mm 3 mps 594 mmHg 63%
    18:00 +24°C° 1 mm 3 mps 594 mmHg 70%
    19:00 +21°C° 1 mm 2 mps 594 mmHg 77%
    20:00 +21°C° 1 mm 1 mps 595 mmHg 84%
    21:00 +21°C° 0.8 mm 1 mps 595 mmHg 86%
    22:00 +20°C° 0.8 mm 1 mps 595 mmHg 88%
    23:00 +20°C° 0.8 mm 1 mps 595 mmHg 91%

    21 January, Sunday

    Time Temperature Precipitation Wind Pressure Humidity
    00:00 +19°C° 0.4 mm 1 mps 594 mmHg 91%
    01:00 +19°C° 0.4 mm 1 mps 594 mmHg 90%
    02:00 +19°C° 0.4 mm 1 mps 593 mmHg 90%
    03:00 +19°C° 0.1 mm 1 mps 593 mmHg 90%
    04:00 +19°C° 0.1 mm 1 mps 592 mmHg 90%
    05:00 +19°C° 0.1 mm 1 mps 592 mmHg 90%
    06:00 +20°C° 0 mm 1 mps 593 mmHg 83%
    07:00 +21°C° 0 mm 1 mps 594 mmHg 77%
    08:00 +23°C° 0 mm 1 mps 595 mmHg 71%
    09:00 +24°C° 0.2 mm 1 mps 595 mmHg 65%
    10:00 +26°C° 0.2 mm 2 mps 596 mmHg 58%
    11:00 +28°C° 0.2 mm 2 mps 596 mmHg 52%
    12:00 +28°C° 1.3 mm 3 mps 596 mmHg 54%
    13:00 +28°C° 1.3 mm 3 mps 595 mmHg 56%
    14:00 +28°C° 1.3 mm 4 mps 594 mmHg 59%
    15:00 +27°C° 0.5 mm 4 mps 594 mmHg 64%
    16:00 +26°C° 0.5 mm 4 mps 593 mmHg 68%
    17:00 +25°C° 0.5 mm 4 mps 592 mmHg 73%
    18:00 +24°C° 1 mm 3 mps 593 mmHg 78%
    19:00 +23°C° 1 mm 2 mps 593 mmHg 82%
    20:00 +21°C° 1 mm 2 mps 593 mmHg 87%
    21:00 +20°C° 0.2 mm 2 mps 594 mmHg 88%
    22:00 +21°C° 0.2 mm 1 mps 594 mmHg 90%
    23:00 +21°C° 0.2 mm 1 mps 594 mmHg 92%

    22 January, Monday

    Time Temperature Precipitation Wind Pressure Humidity
    00:00 +21°C° 0.2 mm 1 mps 593 mmHg 92%
    01:00 +20°C° 0.2 mm 1 mps 593 mmHg 93%
    02:00 +20°C° 0.2 mm 1 mps 592 mmHg 93%
    03:00 +20°C° 0.8 mm 1 mps 592 mmHg 93%
    04:00 +20°C° 0.8 mm 1 mps 592 mmHg 94%
    05:00 +17°C° 0.8 mm 0 mps 592 mmHg 94%
    06:00 +18°C° 0.6 mm 0 mps 593 mmHg 91%
    07:00 +19°C° 0.6 mm 0 mps 593 mmHg 87%
    08:00 +19°C° 0.6 mm 0 mps 594 mmHg 84%
    09:00 +23°C° 0.9 mm 1 mps 594 mmHg 76%
    10:00 +25°C° 0.9 mm 2 mps 595 mmHg 68%
    11:00 +27°C° 0.9 mm 3 mps 595 mmHg 60%
    12:00 +27°C° 1.2 mm 3 mps 595 mmHg 60%
    13:00 +27°C° 1.2 mm 3 mps 594 mmHg 60%
    14:00 +28°C° 1.2 mm 4 mps 594 mmHg 60%
    15:00 +27°C° 1.1 mm 4 mps 593 mmHg 67%
    16:00 +26°C° 1.1 mm 3 mps 592 mmHg 73%
    17:00 +25°C° 1.1 mm 3 mps 592 mmHg 79%
    18:00 +24°C° 1.5 mm 3 mps 592 mmHg 82%
    19:00 +23°C° 1.5 mm 2 mps 592 mmHg 85%
    20:00 +22°C° 1.5 mm 1 mps 592 mmHg 89%
    21:00 +21°C° 1.2 mm 1 mps 593 mmHg 90%
    22:00 +20°C° 1.2 mm 2 mps 593 mmHg 91%
    23:00 +20°C° 1.2 mm 2 mps 593 mmHg 92%

    23 January, Tuesday

    Time Temperature Precipitation Wind Pressure Humidity
    00:00 +20°C° 0.7 mm 1 mps 593 mmHg 92%
    01:00 +20°C° 0.7 mm 1 mps 593 mmHg 93%
    02:00 +20°C° 0.7 mm 1 mps 592 mmHg 93%
    03:00 +20°C° 0.8 mm 1 mps 592 mmHg 93%
    04:00 +20°C° 0.8 mm 1 mps 592 mmHg 92%
    05:00 +19°C° 0.8 mm 1 mps 592 mmHg 92%
    06:00 +20°C° 0.4 mm 1 mps 593 mmHg 88%
    07:00 +21°C° 0.4 mm 1 mps 594 mmHg 84%
    08:00 +20°C° 0.4 mm 0 mps 594 mmHg 80%
    09:00 +23°C° 0.6 mm 1 mps 595 mmHg 74%
    10:00 +24°C° 0.6 mm 1 mps 595 mmHg 68%
    11:00 +25°C° 0.6 mm 2 mps 595 mmHg 62%
    12:00 +26°C° 1.2 mm 2 mps 595 mmHg 61%
    13:00 +26°C° 1.2 mm 3 mps 595 mmHg 60%
    14:00 +27°C° 1.2 mm 3 mps 594 mmHg 59%
    15:00 +26°C° 1.4 mm 3 mps 594 mmHg 63%
    16:00 +26°C° 1.4 mm 3 mps 593 mmHg 67%
    17:00 +25°C° 1.4 mm 3 mps 593 mmHg 71%
    18:00 +24°C° 2.5 mm 3 mps 593 mmHg 77%
    19:00 +21°C° 2.5 mm 3 mps 593 mmHg 83%
    20:00 +20°C° 2.5 mm 2 mps 593 mmHg 89%
    21:00 +20°C° 0.6 mm 2 mps 593 mmHg 90%
    22:00 +21°C° 0.6 mm 1 mps 594 mmHg 91%
    23:00 +21°C° 0.6 mm 1 mps 594 mmHg 91%
    Show more